Location: Unspecified
(0.0000°N, 0.0000°E)
Time: 21:36:14
(UTC+00:00)

Envisat - Pass Details

Date: 23 January 2020
Orbit: 764 x 766 km, 98.1° (Epoch: 24 February)

Event Time Altitude Azimuth Distance (km) Brightness Sun altitude
Rises 18:29:02 0° 175° (S) 3,231 6.4 -4.1°
Reaches altitude 10° 18:31:21 10° 178° (S) 2,303 5.7 -4.6°
Maximum altitude 18:36:22 62° 258° (WSW) 855 3.7 -5.8°
Drops below altitude 10° 18:41:22 10° 338° (NNW) 2,293 5.5 -7.0°
Sets 18:43:41 0° 342° (NNW) 3,217 6.2 -7.5°
